| time (UTC) | temp F | wind direction | speed knots | gust knots | rain 1hr in | rain 24hr in | rain mn in | humidity % | barometer mb |
| 20260505211508 | 61 | 0.0 | 0.0 | 0.01 | 0.06 | 0.06 | 86 | 1004.4 | |
| 20260505210002 | 61 | 0.0 | 0.0 | 0.03 | 0.06 | 0.06 | 84 | 1004.5 | |
| 20260505204501 | 61 | 0.0 | 0.0 | 0.06 | 0.06 | 0.06 | 82 | 1004.8 | |
| 20260505203121 | 62 | 0.0 | 0.0 | 0.06 | 0.06 | 0.06 | 80 | 1005.0 | |
| 20260505201604 | 63 | 0.0 | 0.0 | 0.05 | 0.05 | 0.05 | 77 | 1004.9 | |
| 20260505200059 | 67 | 0.0 | 0.0 | 0.03 | 0.03 | 0.03 | 66 | 1004.9 | |
| 20260505194558 | 72 | 0.0 | 0.0 | 0.00 | 0.00 | 0.00 | 44 | 1003.6 | |
| 20260505193056 | 73 | 0.0 | 0.0 | 0.00 | 0.00 | 0.00 | 42 | 1003.2 | |
| 20260505191611 | 74 | 0.0 | 0.0 | 0.00 | 0.00 | 0.00 | 41 | 1003.1 | |
| 20260505190052 | 74 | 0.0 | 0.0 | 0.00 | 0.00 | 0.00 | 44 | 1003.3 | |
| 20260505184551 | 73 | 0.0 | 0.0 | 0.00 | 0.00 | 0.00 | 47 | 1003.6 | |
| 20260505183049 | 72 | 0.0 | 0.0 | 0.00 | 0.00 | 0.00 | 49 | 1004.0 | |
| 20260505181549 | 72 | 0.0 | 0.0 | 0.00 | 0.00 | 0.00 | 49 | 1004.2 | |
| 20260505180050 | 71 | 0.0 | 0.0 | 0.00 | 0.00 | 0.00 | 57 | 1004.5 | |
| 20260505174547 | 71 | 0.0 | 0.0 | 0.00 | 0.00 | 0.00 | 58 | 1004.6 | |
| 20260505173043 | 72 | 0.0 | 0.0 | 0.00 | 0.00 | 0.00 | 47 | 1004.7 | |
| 20260505171547 | 73 | 0.0 | 0.0 | 0.00 | 0.00 | 0.00 | 48 | 1004.7 | |
| 20260505164543 | 74 | 0.0 | 0.0 | 0.00 | 0.00 | 0.00 | 46 | 1004.5 | |
| 20260505163039 | 74 | 0.0 | 0.0 | 0.00 | 0.00 | 0.00 | 46 | 1005.0 | |
| 20260505161537 | 74 | 0.0 | 0.0 | 0.00 | 0.00 | 0.00 | 48 | 1005.1 | |
| 20260505153028 | 71 | 0.0 | 0.0 | 0.00 | 0.00 | 0.00 | 53 | 1005.3 | |
| 20260505151526 | 71 | 0.0 | 0.0 | 0.00 | 0.00 | 0.00 | 51 | 1005.2 | |
| 20260505124551 | 58 | 0.0 | 0.0 | 0.00 | 0.00 | 0.00 | 76 | 1006.1 | |
| 20260505123050 | 57 | 0.0 | 0.0 | 0.00 | 0.00 | 0.00 | 79 | 1006.2 | |
| 20260505121601 | 58 | 0.0 | 0.0 | 0.00 | 0.00 | 0.00 | 79 | 1006.4 | |
| 20260505120046 | 58 | 0.0 | 0.0 | 0.00 | 0.00 | 0.00 | 76 | 1006.4 | |
| 20260505114544 | 58 | 0.0 | 0.0 | 0.00 | 0.00 | 0.00 | 68 | 1006.5 | |
| 20260505113041 | 58 | 0.0 | 0.0 | 0.00 | 0.00 | 0.00 | 68 | 1006.4 | |
| 20260505111538 | 56 | 0.0 | 0.0 | 0.00 | 0.00 | 0.00 | 71 | 1006.3 | |
| 20260505101523 | 0 | 0.0 | 0.0 | 0.00 | 0.00 | 0.00 | 1005.7 | ||
| 20260505100021 | 0 | 0.0 | 0.0 | 0.00 | 0.00 | 0.00 | 1005.6 | ||
| 20260505094514 | 0 | 0.0 | 0.0 | 0.00 | 0.00 | 0.00 | 1005.5 | ||
| 20260505093020 | 0 | 0.0 | 0.0 | 0.00 | 0.00 | 0.00 | 1005.4 | ||
| 20260505091506 | 55 | 0.0 | 0.0 | 0.00 | 0.00 | 0.00 | 68 | 1005.4 | |
| 20260505090003 | 55 | 0.0 | 0.0 | 0.00 | 0.00 | 0.00 | 67 | 1005.3 | |
| 20260505084501 | 56 | 0.0 | 0.0 | 0.00 | 0.00 | 0.00 | 67 | 1005.3 | |
| 20260505083001 | 56 | 0.0 | 0.0 | 0.00 | 0.00 | 0.00 | 66 | 1005.2 | |
| 20260505081603 | 56 | 0.0 | 0.0 | 0.00 | 0.00 | 0.00 | 66 | 1005.4 | |
| 20260505080058 | 56 | 0.0 | 0.0 | 0.00 | 0.00 | 0.00 | 65 | 1005.5 | |
| 20260505074558 | 56 | 0.0 | 0.0 | 0.00 | 0.00 | 0.00 | 65 | 1005.5 | |
| 20260505073058 | 56 | 0.0 | 0.0 | 0.00 | 0.00 | 0.00 | 64 | 1005.3 | |
| 20260505071556 | 56 | 0.0 | 0.0 | 0.00 | 0.00 | 0.00 | 63 | 1005.4 | |
| 20260505070054 | 56 | 0.0 | 0.0 | 0.00 | 0.00 | 0.00 | 62 | 1005.6 | |
| 20260505064554 | 56 | 0.0 | 0.0 | 0.00 | 0.00 | 0.00 | 63 | 1005.7 | |
| 20260505063052 | 56 | 0.0 | 0.0 | 0.00 | 0.00 | 0.00 | 62 | 1005.7 | |
| 20260505061553 | 56 | 0.0 | 0.0 | 0.00 | 0.00 | 0.00 | 62 | 1005.7 | |
| 20260505060050 | 56 | 0.0 | 0.0 | 0.00 | 0.00 | 0.00 | 62 | 1005.8 | |
| 20260505054550 | 56 | 0.0 | 0.0 | 0.00 | 0.00 | 0.00 | 61 | 1005.8 | |
| 20260505053052 | 56 | 0.0 | 0.0 | 0.00 | 0.00 | 0.00 | 62 | 1005.9 | |
| 20260505051548 | 56 | 0.0 | 0.0 | 0.00 | 0.00 | 0.00 | 62 | 1005.9 | |
| 20260505041544 | 56 | 0.0 | 0.0 | 0.00 | 0.00 | 0.00 | 61 | 1005.7 | |
| 20260505040041 | 56 | 0.0 | 0.0 | 0.00 | 0.00 | 0.00 | 60 | 1005.8 | |
| 20260505034541 | 56 | 0.0 | 0.0 | 0.00 | 0.00 | 0.00 | 60 | 1005.8 | |
| 20260505033102 | 56 | 0.0 | 0.0 | 0.00 | 0.00 | 0.00 | 59 | 1005.7 | |
| 20260505031542 | 57 | 0.0 | 0.0 | 0.00 | 0.00 | 0.00 | 59 | 1005.7 | |
| 20260505030038 | 57 | 0.0 | 0.0 | 0.00 | 0.00 | 0.00 | 58 | 1005.9 | |
| 20260505024537 | 57 | 0.0 | 0.0 | 0.00 | 0.00 | 0.00 | 58 | 1006.0 | |
| 20260505023047 | 57 | 0.0 | 0.0 | 0.00 | 0.00 | 0.00 | 58 | 1006.2 | |
| 20260505021537 | 57 | 0.0 | 0.0 | 0.00 | 0.00 | 0.00 | 57 | 1006.4 | |
| 20260505020039 | 58 | 0.0 | 0.0 | 0.00 | 0.00 | 0.00 | 56 | 1006.3 | |
| 20260505014536 | 58 | 0.0 | 0.0 | 0.00 | 0.00 | 0.00 | 54 | 1006.2 | |
| 20260505013035 | 59 | 0.0 | 0.0 | 0.00 | 0.00 | 0.00 | 53 | 1006.1 | |
| 20260505011535 | 59 | 0.0 | 0.0 | 0.00 | 0.00 | 0.00 | 53 | 1006.0 | |
| 20260505010037 | 60 | 0.0 | 0.0 | 0.00 | 0.00 | 0.00 | 53 | 1005.9 | |
| 20260505004543 | 60 | 0.0 | 0.0 | 0.00 | 0.00 | 0.00 | 51 | 1005.8 | |
| 20260505003035 | 61 | 0.0 | 0.0 | 0.00 | 0.00 | 0.00 | 51 | 1005.8 | |
| 20260505001533 | 61 | 0.0 | 0.0 | 0.00 | 0.00 | 0.00 | 49 | 1005.6 | |
| 20260505000034 | 63 | 0.0 | 0.0 | 0.00 | 0.00 | 0.00 | 48 | 1005.5 | |
| 20260504234541 | 64 | 0.0 | 0.0 | 0.00 | 0.00 | 0.00 | 46 | 1005.4 | |
| 20260504233034 | 65 | 0.0 | 0.0 | 0.00 | 0.00 | 0.00 | 44 | 1005.2 | |
| 20260504231541 | 66 | 0.0 | 0.0 | 0.00 | 0.00 | 0.00 | 41 | 1005.3 | |
| 20260504230029 | 68 | 0.0 | 0.0 | 0.00 | 0.00 | 0.00 | 40 | 1005.1 | |
| 20260504224529 | 68 | 0.0 | 0.0 | 0.00 | 0.00 | 0.00 | 40 | 1005.1 | |
| 20260504223028 | 69 | 0.0 | 0.0 | 0.00 | 0.00 | 0.00 | 39 | 1005.1 | |
| 20260504221527 | 69 | 0.0 | 0.0 | 0.00 | 0.00 | 0.00 | 38 | 1005.1 | |
| 20260504220026 | 69 | 0.0 | 0.0 | 0.00 | 0.00 | 0.00 | 39 | 1005.1 | |
| 20260504214533 | 68 | 0.0 | 0.0 | 0.00 | 0.00 | 0.00 | 39 | 1005.0 | |
| 20260504213026 | 68 | 0.0 | 0.0 | 0.00 | 0.00 | 0.00 | 38 | 1005.2 |